| time (UTC) | temp F | wind direction | speed MPH | gust MPH | rain 1hr in | rain 24hr in | rain mn in | humidity % | barometer mb |
| 20260506051204 | 68 | 131 | 1.0 | 3.0 | 0.00 | 0.00 | 0.00 | 61 | 1008.0 |
| 20260506050703 | 68 | 130 | 2.0 | 3.0 | 0.00 | 0.00 | 0.00 | 61 | 1008.0 |
| 20260506044704 | 68 | 99 | 0.0 | 2.0 | 0.00 | 0.00 | 0.00 | 60 | 1008.0 |
| 20260506044204 | 68 | 99 | 0.0 | 2.0 | 0.00 | 0.00 | 0.00 | 60 | 1007.9 |
| 20260506043704 | 68 | 99 | 1.0 | 3.0 | 0.00 | 0.00 | 0.00 | 59 | 1007.8 |
| 20260506043204 | 69 | 70 | 1.0 | 3.0 | 0.00 | 0.00 | 0.00 | 59 | 1007.8 |
| 20260506042203 | 69 | 200 | 1.0 | 3.0 | 0.00 | 0.00 | 0.00 | 58 | 1007.8 |
| 20260506041204 | 69 | 137 | 1.0 | 5.0 | 0.00 | 0.00 | 0.00 | 57 | 1007.7 |
| 20260506040704 | 70 | 144 | 0.0 | 3.0 | 0.00 | 0.00 | 0.00 | 57 | 1007.7 |
| 20260506040204 | 70 | 143 | 2.0 | 3.0 | 0.00 | 0.00 | 0.00 | 56 | 1007.6 |
| 20260506035704 | 70 | 339 | 1.0 | 3.0 | 0.00 | 0.00 | 0.00 | 56 | 1007.7 |
| 20260506034705 | 70 | 147 | 1.0 | 3.0 | 0.00 | 0.00 | 0.00 | 54 | 1007.6 |
| 20260506034204 | 71 | 154 | 1.0 | 3.0 | 0.00 | 0.00 | 0.00 | 54 | 1007.6 |
| 20260506033704 | 71 | 158 | 2.0 | 5.0 | 0.00 | 0.00 | 0.00 | 53 | 1007.6 |
| 20260506033204 | 71 | 135 | 1.0 | 3.0 | 0.00 | 0.00 | 0.00 | 53 | 1007.6 |
| 20260506032704 | 72 | 135 | 2.0 | 5.0 | 0.00 | 0.00 | 0.00 | 52 | 1007.6 |
| 20260506032204 | 72 | 132 | 2.0 | 6.0 | 0.00 | 0.00 | 0.00 | 50 | 1007.5 |
| 20260506031704 | 72 | 170 | 2.0 | 7.0 | 0.00 | 0.00 | 0.00 | 50 | 1007.6 |
| 20260506031204 | 72 | 121 | 1.0 | 3.0 | 0.00 | 0.00 | 0.00 | 50 | 1007.5 |
| 20260506030704 | 72 | 109 | 2.0 | 5.0 | 0.00 | 0.00 | 0.00 | 50 | 1007.5 |
| 20260506025703 | 71 | 161 | 1.0 | 2.0 | 0.00 | 0.00 | 0.00 | 51 | 1007.6 |
| 20260506025204 | 71 | 217 | 1.0 | 3.0 | 0.00 | 0.00 | 0.00 | 54 | 1007.4 |
| 20260506024704 | 72 | 217 | 1.0 | 3.0 | 0.00 | 0.00 | 0.00 | 52 | 1007.4 |
| 20260506024204 | 72 | 120 | 1.0 | 3.0 | 0.00 | 0.00 | 0.00 | 50 | 1007.6 |
| 20260506023704 | 72 | 258 | 1.0 | 3.0 | 0.00 | 0.00 | 0.00 | 52 | 1007.6 |
| 20260506023204 | 72 | 210 | 1.0 | 3.0 | 0.00 | 0.00 | 0.00 | 51 | 1007.6 |
| 20260506022704 | 72 | 158 | 1.0 | 3.0 | 0.00 | 0.00 | 0.00 | 52 | 1007.7 |
| 20260506022203 | 72 | 153 | 1.0 | 7.0 | 0.00 | 0.00 | 0.00 | 51 | 1007.6 |
| 20260506021704 | 72 | 128 | 1.0 | 3.0 | 0.00 | 0.00 | 0.00 | 51 | 1007.6 |
| 20260506021204 | 72 | 140 | 1.0 | 2.0 | 0.00 | 0.00 | 0.00 | 52 | 1007.5 |
| 20260506020704 | 72 | 140 | 1.0 | 3.0 | 0.00 | 0.00 | 0.00 | 51 | 1007.6 |
| 20260506020204 | 72 | 133 | 1.0 | 7.0 | 0.00 | 0.00 | 0.00 | 52 | 1007.6 |
| 20260506015703 | 72 | 134 | 1.0 | 2.0 | 0.00 | 0.00 | 0.00 | 51 | 1007.5 |
| 20260506015204 | 72 | 135 | 1.0 | 7.0 | 0.00 | 0.00 | 0.00 | 51 | 1007.4 |
| 20260506013704 | 72 | 124 | 1.0 | 3.0 | 0.00 | 0.00 | 0.00 | 52 | 1007.4 |
| 20260506013203 | 72 | 139 | 1.0 | 2.0 | 0.00 | 0.00 | 0.00 | 53 | 1007.3 |
| 20260506012204 | 72 | 139 | 1.0 | 3.0 | 0.00 | 0.00 | 0.00 | 54 | 1007.2 |
| 20260506011703 | 72 | 129 | 1.0 | 3.0 | 0.00 | 0.00 | 0.00 | 53 | 1007.2 |
| 20260506011204 | 72 | 128 | 1.0 | 3.0 | 0.00 | 0.00 | 0.00 | 52 | 1007.1 |
| 20260506010703 | 73 | 129 | 1.0 | 3.0 | 0.00 | 0.00 | 0.00 | 53 | 1007.2 |
| 20260506010203 | 73 | 119 | 1.0 | 3.0 | 0.00 | 0.00 | 0.00 | 52 | 1007.0 |
| 20260506005204 | 73 | 117 | 1.0 | 3.0 | 0.00 | 0.00 | 0.00 | 52 | 1006.9 |
| 20260506004204 | 73 | 193 | 1.0 | 3.0 | 0.00 | 0.00 | 0.00 | 53 | 1006.8 |
| 20260506003703 | 73 | 128 | 1.0 | 3.0 | 0.00 | 0.00 | 0.00 | 51 | 1006.7 |
| 20260506003204 | 74 | 127 | 1.0 | 7.0 | 0.00 | 0.00 | 0.00 | 51 | 1006.6 |
| 20260506002704 | 74 | 104 | 1.0 | 3.0 | 0.00 | 0.00 | 0.00 | 50 | 1006.6 |
| 20260506001704 | 74 | 201 | 1.0 | 2.0 | 0.00 | 0.00 | 0.00 | 51 | 1006.3 |
| 20260506000704 | 74 | 223 | 2.0 | 5.0 | 0.00 | 0.00 | 0.00 | 49 | 1006.4 |
| 20260506000205 | 74 | 223 | 1.0 | 3.0 | 0.00 | 0.00 | 0.00 | 50 | 1006.3 |
| 20260505235203 | 75 | 223 | 0.0 | 2.0 | 0.00 | 0.00 | 0.00 | 48 | 1006.2 |
| 20260505234704 | 75 | 226 | 1.0 | 2.0 | 0.00 | 0.00 | 0.00 | 47 | 1006.1 |
| 20260505234204 | 76 | 226 | 0.0 | 2.0 | 0.00 | 0.00 | 0.00 | 47 | 1006.0 |
| 20260505233703 | 76 | 229 | 2.0 | 9.0 | 0.00 | 0.00 | 0.00 | 44 | 1005.9 |
| 20260505233204 | 76 | 193 | 1.0 | 3.0 | 0.00 | 0.00 | 0.00 | 44 | 1005.9 |
| 20260505232203 | 77 | 218 | 2.0 | 15.0 | 0.00 | 0.00 | 0.00 | 44 | 1005.7 |
| 20260505231704 | 76 | 246 | 2.0 | 8.0 | 0.00 | 0.00 | 0.00 | 45 | 1005.7 |
| 20260505231204 | 77 | 219 | 2.0 | 5.0 | 0.00 | 0.00 | 0.00 | 44 | 1005.6 |
| 20260505230703 | 77 | 218 | 2.0 | 5.0 | 0.00 | 0.00 | 0.00 | 44 | 1005.5 |
| 20260505225704 | 77 | 211 | 1.0 | 6.0 | 0.00 | 0.00 | 0.00 | 44 | 1005.4 |
| 20260505224703 | 77 | 208 | 1.0 | 5.0 | 0.00 | 0.00 | 0.00 | 44 | 1005.2 |
| 20260505224204 | 78 | 189 | 1.0 | 3.0 | 0.00 | 0.00 | 0.00 | 44 | 1005.2 |
| 20260505223204 | 78 | 203 | 2.0 | 5.0 | 0.00 | 0.00 | 0.00 | 44 | 1005.1 |
| 20260505222704 | 78 | 214 | 2.0 | 6.0 | 0.00 | 0.00 | 0.00 | 43 | 1005.0 |
| 20260505222203 | 78 | 213 | 2.0 | 3.0 | 0.00 | 0.00 | 0.00 | 43 | 1005.0 |
| 20260505221704 | 78 | 205 | 2.0 | 8.0 | 0.00 | 0.00 | 0.00 | 42 | 1004.8 |
| 20260505221204 | 79 | 166 | 2.0 | 6.0 | 0.00 | 0.00 | 0.00 | 42 | 1004.8 |
| 20260505220203 | 79 | 108 | 2.0 | 3.0 | 0.00 | 0.00 | 0.00 | 42 | 1004.7 |
| 20260505215703 | 80 | 103 | 2.0 | 7.0 | 0.00 | 0.00 | 0.00 | 41 | 1004.8 |
| 20260505214203 | 81 | 181 | 3.0 | 7.0 | 0.00 | 0.00 | 0.00 | 39 | 1004.6 |
| 20260505213703 | 81 | 156 | 1.0 | 15.0 | 0.00 | 0.00 | 0.00 | 35 | 1004.6 |
| 20260505212704 | 81 | 206 | 7.0 | 17.0 | 0.00 | 0.00 | 0.00 | 33 | 1004.6 |
| 20260505212204 | 81 | 194 | 6.0 | 12.0 | 0.00 | 0.00 | 0.00 | 34 | 1004.6 |
| 20260505210704 | 81 | 187 | 4.0 | 12.0 | 0.00 | 0.00 | 0.00 | 35 | 1004.3 |
| 20260505210204 | 82 | 181 | 2.0 | 9.0 | 0.00 | 0.00 | 0.00 | 36 | 1004.2 |
| 20260505205704 | 82 | 204 | 4.0 | 13.0 | 0.00 | 0.00 | 0.00 | 35 | 1004.3 |
| 20260505205204 | 83 | 210 | 4.0 | 8.0 | 0.00 | 0.00 | 0.00 | 33 | 1004.4 |
| 20260505204704 | 85 | 209 | 5.0 | 12.0 | 0.00 | 0.00 | 0.00 | 34 | 1004.3 |
| 20260505204203 | 84 | 220 | 1.0 | 18.0 | 0.00 | 0.00 | 0.00 | 34 | 1004.4 |
| 20260505203204 | 83 | 209 | 6.0 | 16.0 | 0.00 | 0.00 | 0.00 | 32 | 1004.8 |
| 20260505202704 | 84 | 234 | 3.0 | 14.0 | 0.00 | 0.00 | 0.00 | 34 | 1004.9 |
| 20260505202204 | 83 | 236 | 5.0 | 21.0 | 0.00 | 0.00 | 0.00 | 31 | 1004.7 |
| 20260505201703 | 83 | 214 | 7.0 | 23.0 | 0.00 | 0.00 | 0.00 | 30 | 1004.6 |
| 20260505201203 | 83 | 209 | 5.0 | 12.0 | 0.00 | 0.00 | 0.00 | 32 | 1004.5 |
| 20260505200704 | 83 | 212 | 8.0 | 26.0 | 0.00 | 0.00 | 0.00 | 30 | 1004.6 |
| 20260505200204 | 83 | 218 | 6.0 | 17.0 | 0.00 | 0.00 | 0.00 | 30 | 1004.5 |
| 20260505195204 | 84 | 213 | 6.0 | 15.0 | 0.00 | 0.00 | 0.00 | 31 | 1004.5 |
| 20260505194704 | 84 | 220 | 8.0 | 16.0 | 0.00 | 0.00 | 0.00 | 31 | 1004.9 |
| 20260505193705 | 85 | 196 | 5.0 | 12.0 | 0.00 | 0.00 | 0.00 | 32 | 1004.9 |
| 20260505193204 | 84 | 196 | 5.0 | 10.0 | 0.00 | 0.00 | 0.00 | 31 | 1005.0 |
| 20260505192204 | 84 | 226 | 6.0 | 13.0 | 0.00 | 0.00 | 0.00 | 32 | 1005.1 |
| 20260505191703 | 84 | 176 | 7.0 | 17.0 | 0.00 | 0.00 | 0.00 | 31 | 1005.2 |
| 20260505190704 | 83 | 196 | 8.0 | 18.0 | 0.00 | 0.00 | 0.00 | 32 | 1005.1 |
| 20260505190204 | 82 | 194 | 4.0 | 14.0 | 0.00 | 0.00 | 0.00 | 35 | 1005.2 |
| 20260505185704 | 82 | 205 | 4.0 | 16.0 | 0.00 | 0.00 | 0.00 | 35 | 1005.6 |
| 20260505184704 | 82 | 164 | 5.0 | 10.0 | 0.00 | 0.00 | 0.00 | 37 | 1005.6 |
| 20260505184205 | 82 | 220 | 5.0 | 13.0 | 0.00 | 0.00 | 0.00 | 36 | 1005.4 |
| 20260505183704 | 82 | 220 | 5.0 | 14.0 | 0.00 | 0.00 | 0.00 | 36 | 1005.7 |
| 20260505183204 | 82 | 184 | 6.0 | 17.0 | 0.00 | 0.00 | 0.00 | 37 | 1006.0 |
| 20260505182704 | 82 | 192 | 6.0 | 16.0 | 0.00 | 0.00 | 0.00 | 39 | 1005.8 |
| 20260505182204 | 82 | 210 | 4.0 | 16.0 | 0.00 | 0.00 | 0.00 | 38 | 1005.8 |
| 20260505181703 | 82 | 186 | 4.0 | 12.0 | 0.00 | 0.00 | 0.00 | 38 | 1005.8 |
| 20260505181204 | 82 | 217 | 4.0 | 10.0 | 0.00 | 0.00 | 0.00 | 40 | 1005.9 |
| 20260505180705 | 82 | 212 | 5.0 | 14.0 | 0.00 | 0.00 | 0.00 | 39 | 1005.8 |
| 20260505175704 | 81 | 176 | 6.0 | 21.0 | 0.00 | 0.00 | 0.00 | 38 | 1006.0 |
| 20260505175204 | 82 | 205 | 6.0 | 12.0 | 0.00 | 0.00 | 0.00 | 39 | 1006.1 |
| 20260505174703 | 83 | 216 | 2.0 | 12.0 | 0.00 | 0.00 | 0.00 | 41 | 1006.0 |
| 20260505174204 | 82 | 211 | 3.0 | 8.0 | 0.00 | 0.00 | 0.00 | 39 | 1006.1 |
| 20260505173204 | 82 | 211 | 5.0 | 14.0 | 0.00 | 0.00 | 0.00 | 39 | 1006.3 |
| 20260505171204 | 80 | 164 | 4.0 | 8.0 | 0.00 | 0.00 | 0.00 | 41 | 1006.3 |
| 20260505170705 | 81 | 192 | 3.0 | 12.0 | 0.00 | 0.00 | 0.00 | 41 | 1006.4 |
| 20260505170204 | 80 | 218 | 7.0 | 15.0 | 0.00 | 0.00 | 0.00 | 41 | 1006.4 |
| 20260505165704 | 81 | 180 | 3.0 | 13.0 | 0.00 | 0.00 | 0.00 | 43 | 1006.5 |
| 20260505165204 | 82 | 195 | 2.0 | 10.0 | 0.00 | 0.00 | 0.00 | 43 | 1006.5 |
| 20260505164704 | 81 | 226 | 4.0 | 13.0 | 0.00 | 0.00 | 0.00 | 42 | 1006.6 |
| 20260505164204 | 81 | 246 | 3.0 | 7.0 | 0.00 | 0.00 | 0.00 | 44 | 1006.7 |
| 20260505163704 | 80 | 217 | 2.0 | 10.0 | 0.00 | 0.00 | 0.00 | 44 | 1006.8 |
| 20260505163204 | 79 | 222 | 5.0 | 10.0 | 0.00 | 0.00 | 0.00 | 44 | 1006.9 |
| 20260505162704 | 78 | 203 | 3.0 | 5.0 | 0.00 | 0.00 | 0.00 | 45 | 1006.9 |
| 20260505161704 | 78 | 211 | 2.0 | 10.0 | 0.00 | 0.00 | 0.00 | 43 | 1007.2 |
| 20260505161204 | 78 | 224 | 6.0 | 15.0 | 0.00 | 0.00 | 0.00 | 45 | 1007.0 |
| 20260505160704 | 78 | 223 | 3.0 | 12.0 | 0.00 | 0.00 | 0.00 | 44 | 1007.1 |
| 20260505160205 | 78 | 221 | 3.0 | 6.0 | 0.00 | 0.00 | 0.00 | 44 | 1007.1 |
| 20260505152703 | 78 | 193 | 4.0 | 8.0 | 0.00 | 0.00 | 0.00 | 46 | 1007.8 |
| 20260505152204 | 77 | 206 | 3.0 | 8.0 | 0.00 | 0.00 | 0.00 | 44 | 1007.8 |
| 20260505151703 | 77 | 217 | 3.0 | 7.0 | 0.00 | 0.00 | 0.00 | 45 | 1007.9 |
| 20260505151204 | 77 | 197 | 3.0 | 8.0 | 0.00 | 0.00 | 0.00 | 46 | 1008.0 |
| 20260505150704 | 76 | 233 | 5.0 | 12.0 | 0.00 | 0.00 | 0.00 | 46 | 1008.0 |
| 20260505140203 | 72 | 219 | 3.0 | 5.0 | 0.00 | 0.00 | 0.00 | 53 | 1008.9 |
| 20260505130204 | 68 | 150 | 1.0 | 2.0 | 0.00 | 0.00 | 0.00 | 59 | 1008.9 |
| 20260505124704 | 66 | 196 | 0.0 | 3.0 | 0.00 | 0.00 | 0.00 | 60 | 1009.0 |
| 20260505123703 | 65 | 212 | 0.0 | 2.0 | 0.00 | 0.00 | 0.00 | 61 | 1009.1 |
| 20260505123204 | 65 | 212 | 0.0 | 2.0 | 0.00 | 0.00 | 0.00 | 61 | 1009.2 |
| 20260505122703 | 64 | 212 | 0.0 | 2.0 | 0.00 | 0.00 | 0.00 | 62 | 1009.2 |
| 20260505122204 | 64 | 212 | 0.0 | 2.0 | 0.00 | 0.00 | 0.00 | 62 | 1009.2 |
| 20260505121704 | 63 | 212 | 0.0 | 2.0 | 0.00 | 0.00 | 0.00 | 62 | 1009.1 |
| 20260505121204 | 63 | 212 | 1.0 | 2.0 | 0.00 | 0.00 | 0.00 | 63 | 1009.2 |
| 20260505120703 | 63 | 212 | 0.0 | 1.0 | 0.00 | 0.00 | 0.00 | 63 | 1009.2 |
| 20260505120205 | 62 | 213 | 1.0 | 5.0 | 0.00 | 0.00 | 0.00 | 65 | 1009.4 |
| 20260505115703 | 62 | 208 | 2.0 | 5.0 | 0.00 | 0.00 | 0.00 | 65 | 1009.5 |
| 20260505115203 | 61 | 189 | 0.0 | 1.0 | 0.00 | 0.00 | 0.00 | 67 | 1009.4 |
| 20260505114703 | 60 | 189 | 1.0 | 3.0 | 0.00 | 0.00 | 0.00 | 67 | 1009.4 |
| 20260505114203 | 60 | 188 | 0.0 | 2.0 | 0.00 | 0.00 | 0.00 | 68 | 1009.3 |
| 20260505113703 | 60 | 188 | 2.0 | 3.0 | 0.00 | 0.00 | 0.00 | 68 | 1009.4 |
| 20260505112703 | 59 | 187 | 0.0 | 1.0 | 0.00 | 0.00 | 0.00 | 71 | 1009.3 |
| 20260505112203 | 59 | 187 | 0.0 | 2.0 | 0.00 | 0.00 | 0.00 | 71 | 1009.3 |
| 20260505111703 | 58 | 186 | 0.0 | 0.0 | 0.00 | 0.00 | 0.00 | 73 | 1009.3 |
| 20260505111203 | 57 | 186 | 0.0 | 0.0 | 0.00 | 0.00 | 0.00 | 74 | 1009.2 |
| 20260505110703 | 56 | 186 | 0.0 | 0.0 | 0.00 | 0.00 | 0.00 | 75 | 1009.1 |
| 20260505102203 | 50 | 186 | 0.0 | 0.0 | 0.00 | 0.00 | 0.00 | 80 | 1009.0 |
| 20260505101703 | 50 | 186 | 0.0 | 0.0 | 0.00 | 0.00 | 0.00 | 80 | 1008.7 |
| 20260505101203 | 50 | 186 | 0.0 | 0.0 | 0.00 | 0.00 | 0.00 | 80 | 1008.6 |
| 20260505100703 | 49 | 186 | 0.0 | 0.0 | 0.00 | 0.00 | 0.00 | 79 | 1008.6 |
| 20260505100203 | 49 | 186 | 0.0 | 0.0 | 0.00 | 0.00 | 0.00 | 79 | 1008.6 |
| 20260505095703 | 50 | 186 | 0.0 | 2.0 | 0.00 | 0.00 | 0.00 | 79 | 1008.5 |
| 20260505095202 | 50 | 186 | 0.0 | 2.0 | 0.00 | 0.00 | 0.00 | 79 | 1008.4 |
| 20260505094703 | 50 | 186 | 0.0 | 2.0 | 0.00 | 0.00 | 0.00 | 79 | 1008.3 |
| 20260505094202 | 50 | 186 | 0.0 | 1.0 | 0.00 | 0.00 | 0.00 | 78 | 1008.3 |
| 20260505093703 | 50 | 186 | 0.0 | 1.0 | 0.00 | 0.00 | 0.00 | 78 | 1008.5 |
| 20260505091203 | 52 | 186 | 0.0 | 3.0 | 0.00 | 0.00 | 0.00 | 75 | 1008.3 |
| 20260505090703 | 52 | 187 | 1.0 | 2.0 | 0.00 | 0.00 | 0.00 | 75 | 1008.4 |
| 20260505090202 | 52 | 187 | 1.0 | 3.0 | 0.00 | 0.00 | 0.00 | 75 | 1008.3 |
| 20260505085703 | 52 | 187 | 1.0 | 3.0 | 0.00 | 0.00 | 0.00 | 75 | 1008.4 |
| 20260505084703 | 52 | 186 | 0.0 | 1.0 | 0.00 | 0.00 | 0.00 | 74 | 1008.3 |
| 20260505084202 | 53 | 186 | 0.0 | 2.0 | 0.00 | 0.00 | 0.00 | 74 | 1008.4 |
| 20260505083703 | 53 | 186 | 1.0 | 2.0 | 0.00 | 0.00 | 0.00 | 73 | 1008.5 |
| 20260505083203 | 53 | 186 | 1.0 | 3.0 | 0.00 | 0.00 | 0.00 | 73 | 1008.5 |
| 20260505082703 | 53 | 172 | 0.0 | 3.0 | 0.00 | 0.00 | 0.00 | 74 | 1008.5 |
| 20260505082203 | 53 | 172 | 0.0 | 3.0 | 0.00 | 0.00 | 0.00 | 74 | 1008.6 |
| 20260505081203 | 53 | 172 | 1.0 | 3.0 | 0.00 | 0.00 | 0.00 | 73 | 1008.7 |
| 20260505080703 | 53 | 172 | 0.0 | 3.0 | 0.00 | 0.00 | 0.00 | 73 | 1008.6 |
| 20260505080203 | 53 | 172 | 1.0 | 1.0 | 0.00 | 0.00 | 0.00 | 73 | 1008.6 |
| 20260505074703 | 52 | 172 | 0.0 | 3.0 | 0.00 | 0.00 | 0.00 | 74 | 1008.7 |
| 20260505073703 | 51 | 172 | 0.0 | 1.0 | 0.00 | 0.00 | 0.00 | 75 | 1008.7 |
| 20260505073203 | 52 | 172 | 0.0 | 0.0 | 0.00 | 0.00 | 0.00 | 74 | 1008.7 |
| 20260505072703 | 52 | 172 | 0.0 | 1.0 | 0.00 | 0.00 | 0.00 | 74 | 1008.8 |
| 20260505072204 | 52 | 172 | 1.0 | 3.0 | 0.00 | 0.00 | 0.00 | 74 | 1008.7 |
| 20260505071203 | 52 | 171 | 0.0 | 0.0 | 0.00 | 0.00 | 0.00 | 73 | 1008.7 |
| 20260505070706 | 53 | 180 | 0.0 | 0.0 | 0.00 | 0.00 | 0.00 | 72 | 1008.8 |
| 20260505070204 | 53 | 171 | 1.0 | 3.0 | 0.00 | 0.00 | 0.00 | 72 | 1008.8 |
| 20260505065704 | 53 | 170 | 1.0 | 2.0 | 0.00 | 0.00 | 0.00 | 71 | 1008.8 |
| 20260505065204 | 54 | 170 | 0.0 | 2.0 | 0.00 | 0.00 | 0.00 | 71 | 1008.9 |
| 20260505064204 | 55 | 170 | 0.0 | 2.0 | 0.00 | 0.00 | 0.00 | 69 | 1008.9 |
| 20260505063704 | 55 | 170 | 1.0 | 3.0 | 0.00 | 0.00 | 0.00 | 68 | 1009.0 |
| 20260505063204 | 55 | 170 | 1.0 | 2.0 | 0.00 | 0.00 | 0.00 | 68 | 1008.9 |
| 20260505062704 | 55 | 170 | 1.0 | 2.0 | 0.00 | 0.00 | 0.00 | 68 | 1008.9 |
| 20260505061704 | 56 | 170 | 1.0 | 2.0 | 0.00 | 0.00 | 0.00 | 66 | 1009.1 |
| 20260505060704 | 57 | 170 | 0.0 | 3.0 | 0.00 | 0.00 | 0.00 | 65 | 1009.1 |
| 20260505060204 | 57 | 104 | 1.0 | 3.0 | 0.00 | 0.00 | 0.00 | 64 | 1009.1 |
| 20260505055704 | 57 | 109 | 1.0 | 3.0 | 0.00 | 0.00 | 0.00 | 64 | 1009.1 |